Wind_Speed
10 11 12 12 11 11 10 9 8 7 8 9 9 10 12 13 15 16 15 14 13 12 12 12 12 13 15 15 15 15 15 16 16 15 15 14 12 10 10 10 10 10 10 10 10 10 10 12 12 13 14 14 14 14 15 15 15 14 14 13 13 12 12 12 12 12 12 12 12 12 12 13 14 15 16 16 16 17 17 17 17 17 17 16 16
8 9 10 11 10 10 9 8 7 6 6 7 7 8 9 11 13 15 15 14 13 12 11 11 11 12 13 14 15 15 15 15 15 15 15 15 13 11 10 10 10 10 10 10 11 11 12 12 13 13 14 14 14 15 15 14 14 13 13 12 12 12 12 12 11 10 10 10 10 11 12 12 14 15 16 17 17 18 17 17 17 17 16 16 15
10 8 8 10 9 9 9 8 6 5 5 6 6 6 7 9 11 13 14 14 14 13 11 11 10 11 12 13 14 14 14 15 15 15 15 15 14 12 11 10 10 11 11 11 12 13 13 13 14 14 14 14 14 14 14 14 13 13 12 12 11 11 11 11 10 10 10 10 9 9 10 11 14 15 16 17 17 17 16 16 15 15 15 15 15
12 9 8 9 9 8 8 8 6 5 4 4 5 5 6 7 9 11 12 13 13 13 12 11 10 11 12 13 13 14 14 14 15 15 15 15 14 12 11 11 11 11 12 12 13 14 14 14 15 15 14 14 14 14 13 13 13 12 11 11 11 10 10 10 10 9 9 9 8 7 9 11 14 15 16 17 16 15 15 14 14 14 14 14 14
13 12 10 9 9 9 8 7 6 5 4 3 3 4 5 6 7 9 10 11 12 13 12 11 10 10 11 12 12 13 13 14 14 14 14 14 14 13 12 11 11 11 12 12 13 15 15 15 16 15 15 15 14 14 13 13 12 12 11 10 10 10 9 9 9 8 9 9 7 6 8 11 14 16 17 17 16 15 15 14 14 14 14 14 14
13 14 12 10 10 9 8 7 6 5 3 3 2 2 3 5 6 7 8 9 11 12 12 11 10 9 10 11 11 12 13 13 14 14 14 14 14 14 13 12 11 11 12 12 13 14 15 15 15 15 15 15 14 13 13 12 12 11 10 10 9 9 8 8 8 8 9 10 8 7 9 12 14 16 18 17 16 16 15 15 15 14 14 14 13
12 14 14 12 11 10 9 8 6 5 4 3 1 0 2 4 5 5 6 7 9 11 11 11 9 9 9 10 10 11 12 13 13 13 13 13 14 14 13 13 12 11 11 12 13 14 14 15 15 14 14 14 14 13 12 12 11 10 9 8 7 8 8 8 8 8 8 10 10 8 11 14 15 16 17 16 15 15 15 15 15 14 13 13 13
10 13 14 14 13 12 10 9 8 6 6 4 3 1 1 2 3 4 5 6 7 9 10 10 9 8 8 9 10 11 12 12 13 13 13 13 13 13 13 12 12 11 11 11 12 13 13 14 14 14 14 13 13 12 12 11 9 9 8 7 7 7 8 8 7 7 7 10 12 11 14 15 15 15 16 16 15 15 15 14 14 13 13 12 12
7 11 14 14 14 13 12 11 10 8 8 6 5 4 2 2 3 4 4 5 5 7 8 9 9 8 8 8 9 10 11 12 12 12 12 12 12 12 12 12 12 11 11 11 11 12 13 13 13 13 13 12 12 12 11 9 8 8 7 7 8 8 9 8 7 7 5 8 12 13 13 14 14 14 15 16 16 16 15 14 13 13 12 12 11
4 10 13 13 13 13 13 13 12 11 10 9 7 6 4 4 3 3 3 4 4 5 7 8 8 8 7 7 8 9 10 11 12 11 11 11 11 11 11 11 11 11 11 10 10 11 12 12 12 12 12 12 11 11 10 9 8 7 7 7 8 9 10 10 8 8 7 7 12 12 10 11 13 14 15 16 16 16 15 14 13 12 12 11 11
5 10 12 12 12 13 13 14 13 12 11 11 10 8 7 5 4 3 3 3 3 4 5 6 7 7 7 7 7 8 9 10 11 11 10 10 10 10 10 10 10 10 10 10 10 10 10 11 11 11 11 11 10 10 9 8 7 6 7 7 8 9 10 9 8 8 8 9 13 10 10 11 13 14 16 16 15 15 14 14 13 12 12 12 11
7 9 11 11 11 12 13 13 14 14 13 12 11 10 9 6 5 3 3 3 2 2 3 4 6 7 7 6 7 7 8 9 10 10 10 9 9 9 9 9 10 9 9 10 10 10 10 10 10 10 10 10 9 9 8 7 6 6 6 7 7 7 8 9 8 7 8 10 13 10 11 12 13 14 15 14 14 14 14 13 13 12 12 12 12
6 7 9 9 9 10 11 13 13 14 13 13 12 11 9 8 6 4 4 3 2 1 2 3 5 6 6 6 6 6 7 8 9 10 9 9 8 8 8 8 9 9 8 9 9 9 9 9 9 9 9 8 8 7 7 6 5 5 5 5 6 6 7 7 9 9 8 11 12 10 12 12 13 14 14 14 14 14 13 12 12 12 12 12 12
4 5 6 6 7 9 10 11 12 13 13 13 13 12 10 8 7 5 5 4 3 1 1 1 3 5 5 5 5 5 6 7 8 8 8 8 7 7 7 7 7 7 8 8 8 8 9 8 8 8 7 7 6 6 5 4 4 4 4 4 5 6 6 7 9 9 9 10 9 9 11 12 13 14 13 13 13 13 12 12 12 12 12 12 12
2 3 3 3 4 6 8 10 11 12 12 13 12 12 11 9 7 6 5 4 4 2 1 0 1 3 4 4 4 4 5 5 6 7 8 7 7 6 7 6 6 6 7 7 7 7 8 8 7 7 6 6 5 4 4 3 3 2 2 3 5 6 7 8 10 10 8 8 8 8 10 11 13 13 12 12 12 12 12 12 12 12 12 12 12
1 1 1 2 3 4 7 8 10 11 11 11 12 12 11 10 8 7 6 5 5 3 2 1 1 2 3 4 3 3 4 4 5 6 6 7 6 6 5 5 5 5 6 6 7 7 7 7 7 6 5 4 4 3 2 1 1 1 2 4 5 6 8 10 10 9 7 7 7 8 9 10 12 12 12 11 11 10 11 11 12 12 12 12 12
0 1 1 1 2 4 6 7 8 9 9 10 11 11 11 10 9 8 7 6 6 4 3 1 1 1 2 3 2 3 3 3 4 5 5 5 5 5 4 4 4 4 5 6 6 7 7 7 6 6 5 4 3 2 2 1 1 1 3 4 5 7 9 9 9 7 6 6 7 8 8 10 11 11 10 10 10 10 10 11 11 12 13 13 13
1 2 1 1 3 5 6 7 8 8 8 9 10 10 10 10 9 9 8 8 7 5 4 2 2 1 1 2 1 2 2 2 3 3 4 4 4 4 3 3 4 4 4 5 6 7 7 7 6 6 5 4 4 3 2 2 2 2 3 4 6 7 8 8 8 6 5 6 8 8 8 10 10 9 8 9 9 9 10 11 11 12 13 14 14
2 2 2 2 4 6 6 7 8 8 8 8 9 10 9 10 10 10 9 8 7 6 4 3 3 2 0 0 1 1 1 1 2 2 2 2 2 2 3 3 4 4 4 5 6 6 7 7 7 6 6 5 5 4 4 4 3 3 4 4 6 7 7 6 6 6 4 5 6 7 8 9 9 8 7 8 9 9 10 10 11 12 12 13 14
3 2 2 2 4 5 6 8 8 8 8 8 9 9 9 10 10 10 10 9 8 7 5 4 3 3 2 1 0 0 0 0 1 2 2 1 1 1 2 3 4 4 5 6 6 7 7 7 7 7 7 6 6 6 6 5 4 4 4 4 5 6 6 6 5 5 5 5 5 6 7 8 7 6 7 8 8 8 9 10 11 11 12 12 13
3 2 2 2 4 5 7 8 8 9 8 8 9 9 9 10 10 11 10 10 9 7 6 5 4 3 3 2 1 1 1 1 1 2 2 1 1 0 1 2 3 5 6 6 7 8 8 8 8 8 8 8 7 7 7 5 4 4 3 4 4 5 5 5 5 4 5 6 5 5 6 6 6 6 6 7 8 8 9 9 10 11 11 12 13
2 2 3 3 5 6 7 8 9 9 8 8 9 9 10 10 11 11 11 10 9 8 7 6 5 4 4 3 3 3 3 3 2 2 2 2 2 2 1 2 3 5 6 7 7 8 8 9 8 8 8 8 8 8 7 6 5 3 3 4 4 5 4 4 3 4 5 5 4 5 5 5 5 6 6 7 8 8 9 10 11 12 12 13 14
2 2 3 4 5 7 7 8 9 9 9 8 9 9 10 11 11 12 11 11 10 9 8 7 6 5 5 4 4 4 4 4 4 3 3 3 4 3 3 3 4 6 7 7 8 8 8 8 7 8 8 8 7 7 7 7 5 3 4 4 4 5 4 3 3 5 4 4 3 4 5 5 6 6 7 8 9 10 11 12 13 14 14 15 15
3 3 3 5 5 7 8 8 9 9 9 9 9 9 9 10 12 12 12 11 10 9 8 8 7 6 6 5 5 5 5 5 5 4 3 4 4 4 4 4 5 6 7 8 8 8 8 7 7 7 7 8 7 7 7 6 4 4 4 4 5 5 2 2 3 5 4 3 4 4 5 6 7 8 9 9 10 11 12 14 15 15 16 16 17
5 4 4 6 6 7 8 8 9 9 9 9 9 8 7 9 11 12 11 11 11 10 9 8 8 7 7 7 6 6 6 7 6 4 4 4 4 5 4 4 5 6 8 8 8 8 8 7 7 7 8 8 8 8 7 6 5 5 4 4 5 3 1 2 3 4 4 3 4 4 5 6 8 9 10 11 12 13 14 15 16 16 16 17 18
7 6 5 8 8 8 8 9 9 9 9 9 8 7 6 6 9 10 11 11 10 10 9 9 9 8 8 8 7 8 7 6 6 5 4 4 4 4 4 4 5 6 7 8 8 8 9 9 8 8 8 8 8 8 8 7 6 5 4 5 5 3 2 2 2 3 3 3 4 4 6 7 9 10 11 13 14 15 15 16 17 17 17 18 19
9 8 7 9 10 10 9 9 9 9 9 8 8 7 5 5 6 8 8 9 9 8 9 10 9 9 9 8 9 9 7 6 6 5 4 5 5 5 4 2 2 5 7 8 8 8 9 9 8 9 8 7 8 9 10 8 5 4 4 5 6 3 2 1 1 3 4 4 5 6 7 8 10 12 13 14 15 16 17 18 18 18 18 19 20
11 9 8 9 11 11 10 9 9 9 9 8 8 6 5 5 6 7 6 7 8 8 9 10 10 10 9 8 9 9 7 6 6 5 4 5 5 5 4 2 2 4 5 6 6 7 8 8 8 9 8 7 7 8 9 6 4 5 5 5 7 4 2 2 3 4 5 6 6 7 9 10 12 13 14 15 16 17 18 18 19 19 19 19 20
13 12 10 10 11 12 12 10 9 9 9 8 7 5 4 5 7 8 7 7 8 10 11 11 10 10 9 8 8 8 7 6 5 5 4 5 5 5 4 4 4 4 5 6 7 7 7 8 8 9 9 8 7 7 8 6 3 6 6 6 7 5 3 4 4 4 6 7 7 8 10 12 13 14 15 16 16 17 18 18 19 20 20 20 20
14 14 13 12 12 12 13 11 10 10 9 8 7 6 5 6 8 8 8 9 10 11 11 10 10 10 9 8 9 8 7 6 6 6 4 5 5 6 5 4 5 5 6 7 8 7 7 9 9 9 10 11 9 7 7 6 6 6 6 7 6 5 4 4 5 5 7 8 8 9 11 14 14 15 15 16 17 17 18 18 19 19 20 20 20
14 15 15 14 13 13 14 13 11 10 9 9 8 8 7 7 10 9 9 10 10 11 11 11 11 10 9 8 8 8 7 6 7 6 5 5 6 7 6 5 5 6 5 7 8 7 7 9 8 10 11 12 11 9 6 7 8 7 6 5 5 6 6 5 7 8 9 9 10 10 12 14 15 16 16 17 18 18 18 19 19 19 20 20 20
15 15 16 17 16 14 15 14 12 11 10 9 9 9 8 9 11 9 9 10 10 11 11 12 12 11 9 8 8 8 7 7 8 7 6 6 6 7 5 5 6 6 6 7 8 8 9 10 10 10 11 12 6 6 7 9 9 9 7 6 6 8 9 9 10 10 12 12 12 12 12 14 15 17 18 18 18 18 18 18 19 20 20 21 20
15 15 16 18 18 16 16 15 13 12 10 10 9 10 9 9 11 9 10 11 11 11 12 12 12 12 11 9 9 9 8 8 9 9 7 7 7 6 5 5 6 7 7 7 7 9 8 9 11 10 10 10 5 5 9 10 8 8 6 7 8 10 12 12 12 12 14 15 15 14 14 15 15 16 17 18 18 18 18 19 19 20 20 20 20
16 16 16 18 19 19 17 17 14 12 11 10 10 10 10 10 11 10 10 12 12 12 12 12 12 13 13 11 10 10 9 8 9 8 8 7 7 7 5 5 5 6 7 7 8 8 5 6 10 10 10 10 8 9 10 8 6 6 6 7 8 11 14 15 15 15 15 16 17 17 17 16 15 14 15 17 18 18 19 19 19 19 20 20 20
17 16 16 17 20 19 19 18 15 13 13 11 10 11 11 11 12 10 11 12 12 12 12 13 13 13 14 13 11 11 9 8 8 8 7 7 8 7 6 6 6 7 9 10 9 8 6 7 9 11 11 9 9 10 8 7 7 7 7 9 11 12 14 16 17 17 17 18 19 19 18 16 15 14 15 17 18 18 18 18 18 19 20 21 21
18 17 16 17 19 19 20 19 16 15 14 11 10 12 12 13 13 11 11 13 13 13 13 14 14 13 14 13 12 11 9 8 8 7 7 8 7 7 7 8 7 8 9 9 8 8 8 8 10 12 11 10 10 8 7 7 7 8 9 11 13 13 14 16 17 18 19 19 20 20 18 17 16 16 15 16 17 18 18 18 19 20 21 22 22
21 18 16 17 18 19 20 20 17 16 15 11 11 13 13 15 15 12 12 13 13 13 14 15 14 13 13 13 12 11 9 9 9 8 7 7 6 6 7 8 7 8 8 8 9 9 9 10 11 11 10 10 9 8 8 7 6 8 10 12 13 14 15 16 17 18 18 18 19 18 18 17 17 16 16 15 16 17 18 19 20 21 21 22 22
23 21 18 18 17 18 20 21 18 18 16 13 12 14 15 16 16 13 13 14 13 15 16 15 14 14 14 13 12 11 10 9 9 8 7 7 6 7 7 7 7 8 9 9 9 8 8 9 9 7 7 8 8 8 7 6 6 8 11 12 13 14 16 17 17 17 17 16 16 16 16 16 16 16 16 16 16 17 18 19 20 21 21 22 22
25 23 20 19 18 18 21 22 21 20 17 14 13 15 17 18 17 14 15 15 14 15 16 15 15 15 15 13 12 11 10 10 10 9 8 7 8 8 7 6 7 8 9 9 8 7 7 6 5 5 6 8 8 7 5 5 7 9 11 13 14 15 16 17 17 16 15 14 14 14 14 14 14 14 15 16 17 18 18 19 19 20 20 21 22
27 25 22 20 19 19 21 22 23 22 19 16 15 15 17 19 18 16 16 15 15 16 15 16 16 16 15 14 13 12 11 11 10 9 9 8 8 8 7 8 9 10 10 9 8 9 7 5 5 6 7 9 8 7 6 7 9 10 12 14 15 17 17 17 16 15 14 13 13 13 13 13 14 14 15 16 18 19 20 20 20 20 21 22 22
30 28 24 21 20 20 21 23 23 23 20 17 15 15 17 19 18 17 17 16 16 17 17 16 16 17 16 14 13 12 12 11 10 9 9 8 7 7 7 9 11 11 10 10 10 9 6 5 6 7 8 10 9 9 9 10 11 12 13 16 17 17 16 16 14 13 13 13 12 12 12 13 13 15 16 17 18 20 21 22 23 24 24 24 23
31 29 25 22 21 21 22 23 24 23 21 17 15 15 17 19 18 17 18 18 18 19 19 18 17 17 16 14 13 13 13 11 10 11 10 9 8 7 8 10 11 11 11 11 10 8 5 5 7 7 9 11 10 11 11 11 12 13 15 17 18 17 16 15 14 12 12 12 12 12 12 13 14 15 16 17 18 19 20 22 24 25 26 25 24
27 28 26 24 22 22 24 24 25 24 22 18 15 15 17 19 19 19 20 20 20 21 20 18 17 17 16 14 13 13 13 12 12 13 11 10 8 9 9 10 11 12 11 10 9 7 5 7 8 9 11 12 12 12 12 13 14 15 17 18 18 17 16 14 13 12 12 12 12 12 12 13 14 15 16 17 18 19 21 23 25 26 25 24 23
26 26 27 26 23 24 25 25 25 24 22 18 15 15 17 18 19 20 21 22 22 22 20 19 17 16 15 15 13 12 12 13 13 13 12 10 9 10 10 11 12 13 12 10 9 7 8 9 10 11 12 13 13 13 13 14 16 17 19 19 18 17 15 13 13 12 13 14 13 13 13 13 14 15 16 17 18 19 21 23 24 25 24 23 21
29 27 27 27 25 25 26 25 25 24 22 19 16 17 17 19 20 21 22 22 21 21 20 19 17 15 15 15 14 13 13 14 13 13 13 12 11 12 12 13 15 15 13 11 10 10 10 11 11 12 13 13 13 14 14 16 17 19 19 19 18 17 14 13 14 14 14 15 15 14 15 15 15 16 17 17 18 19 21 22 23 23 22 21 19
31 28 27 28 27 27 27 25 24 24 23 21 18 17 18 19 20 21 21 20 19 19 19 19 17 15 15 16 15 15 15 15 14 13 13 12 12 13 13 14 15 15 13 12 11 11 11 12 12 12 13 14 14 15 16 17 19 19 19 19 19 17 16 15 15 15 15 16 16 16 16 16 16 16 17 17 18 20 21 22 22 21 20 19 19
33 32 30 30 29 29 28 26 24 24 23 21 19 18 19 19 19 20 20 19 19 20 20 19 18 16 16 16 15 15 16 16 14 12 11 11 12 12 13 13 13 13 12 12 12 12 12 12 12 13 14 14 15 16 17 19 20 20 20 20 19 18 17 16 16 16 16 16 16 16 16 17 17 17 16 17 19 20 21 22 22 21 20 19 18
35 36 33 30 30 30 29 26 25 25 23 21 20 19 19 18 18 20 20 20 21 22 21 20 19 18 17 16 14 15 17 16 13 12 11 11 12 12 12 12 12 12 11 12 13 13 13 12 13 14 14 14 16 17 19 20 20 20 20 19 19 19 17 16 16 17 17 16 16 16 17 17 18 17 16 16 18 19 20 21 22 20 18 18 18
34 34 33 30 30 30 29 27 26 25 24 22 20 19 18 18 19 20 21 23 23 22 22 21 20 18 17 15 15 16 16 15 13 12 12 12 12 12 11 12 12 12 12 12 13 13 13 12 13 14 15 15 17 18 20 20 19 19 19 19 19 18 18 17 18 19 20 18 16 16 17 18 19 18 17 16 17 18 18 19 19 17 17 17 18
34 33 32 31 31 31 29 28 27 26 24 22 21 19 19 20 20 21 23 25 25 23 22 21 20 18 16 16 16 16 15 14 14 13 12 12 12 11 11 12 12 12 12 12 12 12 13 13 14 15 16 17 18 19 20 20 19 19 19 18 18 17 17 18 19 20 21 20 19 17 17 17 18 18 18 17 17 17 16 17 16 16 17 18 18
36 35 34 32 31 31 30 28 27 26 24 22 20 20 20 20 20 22 24 26 24 23 22 21 19 17 17 17 17 16 14 14 14 13 12 11 12 12 12 13 13 12 12 13 13 13 13 14 14 16 17 18 19 20 19 19 19 19 18 17 17 17 17 19 20 20 21 21 21 20 19 18 17 16 17 17 16 16 16 16 16 16 18 19 19
Wind_Direction
168 164 154 157 151 150 143 138 128 113 98 89 78 70 68 69 71 72 74 77 79 79 79 77 76 77 78 79 78 77 76 75 73 73 74 76 83 93 103 106 108 107 105 102 102 105 108 111 112 111 109 108 106 105 103 102 100 99 98 96 93 87 82 77 74 71 68 63 57 46 35 38 41 33 26 22 19 16 13 11 9 7 5 5 4
175 174 161 159 157 156 151 147 139 124 102 91 80 67 62 63 67 69 71 73 75 76 79 77 75 75 75 77 76 74 74 75 72 72 73 75 79 87 97 103 107 108 109 107 109 113 114 116 114 111 108 107 106 104 103 102 101 100 98 94 90 84 80 76 73 68 65 60 54 45 31 31 37 30 22 17 13 12 10 10 8 6 6 6 5
188 188 174 164 165 164 160 157 152 136 111 93 80 67 57 57 62 65 67 69 72 72 75 77 74 72 72 73 73 72 71 72 71 70 71 73 76 82 91 99 106 109 111 114 117 118 119 119 116 113 109 108 105 104 103 103 102 99 96 91 85 80 78 76 72 62 55 54 51 44 31 26 32 26 19 16 12 11 10 9 9 8 8 6 5
189 196 192 177 172 172 170 166 165 150 123 101 79 67 52 50 55 59 63 65 68 68 69 73 74 71 70 71 71 71 69 70 70 69 69 71 74 77 85 92 100 108 113 117 120 121 122 120 117 115 111 109 106 105 105 103 102 98 93 86 81 75 72 70 66 63 57 52 46 39 29 22 26 22 16 14 11 11 10 10 11 11 10 7 6
185 195 203 193 182 181 182 176 177 167 141 120 84 64 47 40 46 54 60 60 63 65 66 67 71 71 69 71 70 70 68 68 69 69 69 69 72 74 78 85 93 103 112 118 122 123 124 121 118 117 114 111 109 108 107 104 101 96 89 81 75 68 65 61 58 62 62 60 51 30 26 25 24 20 14 10 8 9 9 10 11 12 11 9 8
186 193 202 202 195 188 192 192 188 184 170 152 112 63 43 32 35 46 56 57 59 62 65 65 66 68 70 71 70 69 68 68 68 69 69 70 72 73 76 79 88 98 108 116 121 123 124 121 120 119 116 115 113 111 107 104 98 92 85 77 70 62 59 54 50 51 55 56 48 29 26 27 24 18 11 6 5 7 6 8 9 10 10 9 9
191 194 200 204 204 197 200 205 203 203 204 197 186 83 32 22 22 33 48 55 58 59 63 64 64 66 69 71 71 71 68 67 68 68 68 70 73 75 76 78 84 93 104 113 119 122 122 119 119 118 115 115 114 112 107 102 96 91 85 78 68 60 53 47 42 33 37 36 31 32 30 25 20 15 7 3 3 4 4 4 5 6 7 9 9
197 194 200 204 207 206 207 212 219 221 225 232 235 246 331 356 3 18 36 48 54 57 61 63 65 66 67 69 71 73 69 66 66 66 67 69 73 76 78 80 82 89 98 109 117 120 119 118 117 116 114 113 112 108 105 100 95 91 85 78 65 56 43 41 43 28 17 14 22 33 26 19 14 9 3 1 2 2 1 1 2 3 5 8 8
197 196 199 204 208 211 214 217 225 230 238 244 250 257 273 307 336 360 19 39 49 52 56 61 66 68 66 67 70 73 71 67 66 66 66 67 71 76 80 82 83 87 93 103 112 116 117 117 116 113 112 110 109 105 101 97 94 90 81 70 54 43 30 31 39 31 359 355 27 34 17 12 9 4 360 359 359 359 358 358 359 2 5 7 9
176 193 201 207 211 215 220 223 228 234 241 247 253 259 266 283 305 339 358 25 42 46 52 57 64 68 67 66 68 73 74 69 67 66 66 67 70 74 79 83 85 88 93 100 106 112 115 116 115 113 112 109 108 103 99 96 91 85 72 58 44 31 24 22 23 22 349 357 39 36 12 10 6 1 359 358 358 358 357 356 358 0 4 7 9
160 187 202 209 213 219 226 230 235 238 243 248 255 259 264 275 284 313 334 353 27 41 47 53 58 66 67 67 68 71 76 73 69 67 67 67 69 73 78 83 87 89 93 100 105 109 112 114 115 114 113 110 107 103 99 95 88 77 63 50 38 27 21 15 14 10 339 7 42 31 12 10 3 0 359 357 357 357 355 355 358 1 4 6 7
167 182 196 206 216 223 230 237 240 243 247 251 256 260 265 271 273 283 297 316 3 33 45 53 55 63 68 66 67 70 75 76 72 68 67 67 69 72 75 83 89 92 95 101 107 111 114 114 115 116 114 111 108 104 100 97 87 71 58 44 33 22 17 9 3 353 331 9 35 22 14 9 1 1 356 355 358 355 354 356 359 0 3 6 5
171 181 192 203 215 224 233 240 244 247 251 255 258 262 265 267 266 266 273 292 321 7 43 55 54 61 68 67 67 70 74 78 76 70 68 67 69 73 74 82 92 98 99 104 111 115 118 118 118 116 114 112 108 105 102 96 85 66 51 36 24 12 8 360 353 346 337 7 22 12 12 7 359 360 353 354 358 353 355 359 0 2 4 7 8
172 183 194 200 210 223 232 240 246 249 252 256 259 261 264 264 261 259 262 273 284 308 36 62 60 60 66 70 68 70 76 80 81 76 70 68 69 74 78 82 91 101 107 109 114 119 122 123 123 119 117 116 111 108 102 93 79 61 42 22 8 357 350 347 349 345 343 1 10 5 7 1 356 356 352 354 357 353 357 2 3 7 9 12 14
168 188 193 196 210 221 232 241 246 249 253 256 258 260 262 262 258 253 253 259 266 273 304 101 75 62 63 68 70 70 76 82 86 83 74 72 70 75 83 84 88 101 114 118 121 125 128 129 127 126 126 122 120 114 107 96 76 50 26 5 352 343 337 342 345 345 351 1 4 6 3 354 353 355 351 355 358 355 360 5 7 11 13 16 18
176 214 181 192 222 232 239 245 248 252 255 257 259 260 260 258 254 247 245 248 255 257 263 226 137 64 62 62 70 70 74 83 86 89 79 73 72 73 82 88 94 102 116 125 130 134 134 136 136 136 136 135 135 131 138 131 87 22 1 346 337 333 337 341 338 343 0 3 359 4 0 352 353 354 351 357 3 1 5 10 11 12 13 15 15
286 265 244 223 250 253 252 253 255 258 260 262 262 260 259 254 247 243 241 241 246 247 249 245 209 75 61 60 71 70 72 85 85 92 86 75 74 77 83 93 105 111 123 132 136 143 144 144 146 147 149 154 158 170 194 219 293 342 344 323 323 332 338 332 326 347 2 346 350 357 356 355 356 356 353 1 10 8 11 14 13 11 11 10 10
256 268 275 275 272 269 269 269 265 265 265 266 265 263 259 252 246 238 237 236 239 242 242 245 225 200 75 56 57 67 66 83 90 96 95 82 76 83 97 107 121 127 135 142 145 150 153 154 156 158 165 176 185 202 222 251 277 306 308 303 320 331 329 314 319 356 356 328 340 351 355 358 359 359 359 7 15 12 13 15 13 11 9 8 8
218 252 279 273 279 281 284 283 272 268 265 266 263 263 259 251 246 237 234 233 234 239 239 239 230 218 190 32 38 63 50 82 97 103 108 95 77 90 119 131 141 146 152 157 159 159 161 165 167 172 182 192 203 217 231 245 261 277 282 299 316 314 304 297 324 350 330 320 338 350 354 355 1 5 5 12 16 13 11 11 11 9 6 5 4
203 241 300 295 300 301 297 293 282 273 264 265 264 259 257 248 244 238 232 231 231 235 234 236 233 224 230 252 307 304 320 121 126 134 141 128 70 90 143 158 163 166 171 173 173 172 174 176 178 186 194 205 214 226 236 245 260 273 285 304 306 298 294 300 330 330 315 330 345 352 354 355 4 10 8 10 12 10 8 6 5 3 1 359 357
196 240 323 346 332 325 314 305 292 283 270 265 265 258 255 246 240 236 231 230 230 232 233 235 236 232 237 256 275 264 265 249 211 185 190 226 265 292 202 189 189 188 187 184 185 185 187 189 190 196 204 212 219 230 240 251 267 276 284 289 282 283 297 316 330 314 317 337 340 347 356 360 5 8 5 2 2 2 359 357 355 354 353 352 351
192 243 312 346 350 346 332 318 303 290 278 269 267 261 255 246 239 233 229 229 228 231 233 234 237 240 241 254 267 266 267 266 252 225 225 252 261 272 264 232 212 206 202 196 195 197 202 202 202 207 212 220 229 240 253 265 268 268 271 274 276 280 305 337 336 321 328 335 333 350 1 360 358 357 355 350 350 350 348 347 346 346 346 345 345
212 249 294 328 345 350 342 326 312 296 287 278 271 266 257 247 238 231 229 227 228 230 232 236 238 242 245 252 263 269 271 272 266 248 238 253 264 271 263 240 221 216 210 206 206 209 213 212 214 221 226 232 240 254 269 273 257 240 257 276 293 293 317 347 332 330 335 335 339 359 1 352 347 343 341 340 340 340 341 340 339 341 340 339 339
233 261 282 313 332 342 341 332 320 304 292 283 274 268 254 242 235 230 229 228 229 229 233 239 240 243 246 249 263 275 278 276 272 261 250 256 268 275 269 250 232 225 218 212 212 217 222 226 231 238 244 246 249 254 258 255 231 235 260 277 289 286 309 330 329 336 335 339 348 356 351 338 335 334 334 333 334 337 337 336 335 336 336 334 334
242 270 289 308 322 330 334 333 323 309 295 285 276 264 247 238 234 230 229 231 232 232 236 242 246 246 246 248 256 266 268 272 274 271 272 276 283 283 277 266 247 236 229 223 221 221 222 228 236 239 246 251 253 245 241 237 213 228 259 265 265 269 307 329 337 336 332 340 340 338 332 326 326 328 329 330 334 336 336 333 332 332 332 331 331
243 267 299 313 318 317 325 330 324 313 298 287 279 266 248 234 233 231 229 234 235 235 240 244 249 249 251 254 257 260 261 272 280 282 296 302 300 295 290 277 249 238 234 230 232 231 224 222 227 232 237 243 248 242 239 234 212 211 239 257 256 258 314 340 332 317 323 322 316 318 319 321 325 326 329 331 334 334 334 331 329 329 331 331 331
247 262 296 313 315 312 316 323 322 316 304 292 284 273 250 232 235 234 227 232 238 238 242 246 249 250 253 256 261 266 267 276 284 293 310 314 314 308 304 294 236 242 242 237 243 241 232 226 221 223 228 230 238 244 243 227 193 203 239 259 263 254 254 246 262 288 298 298 304 314 319 323 326 328 330 331 332 331 331 330 328 330 332 332 331
250 261 285 304 310 310 311 317 320 316 306 295 287 278 253 232 239 243 230 227 239 242 243 247 247 249 252 257 265 269 269 274 287 300 308 309 312 310 299 266 230 251 248 243 252 247 238 234 219 213 218 220 224 238 250 235 172 197 228 250 257 247 227 232 241 263 285 295 305 317 323 324 325 328 328 329 330 330 330 330 329 330 331 331 332
252 258 271 290 304 306 307 312 314 312 306 296 287 279 259 239 246 253 241 227 236 242 244 249 252 254 257 261 270 275 273 272 279 285 294 299 301 308 290 256 252 253 242 241 252 251 245 242 229 213 206 210 213 224 252 266 218 202 209 235 246 239 226 241 250 260 286 303 313 320 323 320 322 325 325 327 328 329 329 329 329 329 330 331 333
253 255 261 277 295 301 303 308 307 307 306 298 285 276 268 256 259 260 252 241 242 248 251 256 259 263 264 265 272 276 273 269 272 271 279 293 299 310 290 251 251 249 243 243 244 245 246 245 240 227 212 207 203 204 234 251 245 228 215 224 231 234 240 255 271 284 297 312 319 320 319 316 320 322 323 326 327 329 329 328 328 328 329 330 331
255 257 260 268 284 293 297 301 302 303 302 295 282 276 274 267 270 268 260 256 253 255 258 259 262 265 266 270 271 267 266 267 273 272 274 286 295 305 288 241 245 255 248 237 233 229 235 240 239 239 235 225 199 179 207 225 236 251 248 250 260 267 272 282 296 307 310 315 319 319 317 316 320 322 324 326 327 329 328 327 328 329 330 330 331
258 260 261 265 274 283 292 296 296 296 297 294 278 275 277 271 276 272 261 263 260 258 260 260 264 267 267 267 264 261 263 264 270 274 275 281 290 297 278 236 245 261 250 230 225 221 228 232 226 229 244 251 223 165 206 220 225 243 258 282 291 287 289 296 306 316 316 317 320 317 316 317 322 323 323 326 328 329 328 329 330 330 330 329 328
260 262 264 265 268 274 286 289 289 290 290 291 278 273 274 272 278 271 258 263 263 260 260 263 265 268 268 260 258 260 261 264 270 276 283 290 295 292 268 244 249 260 251 233 230 229 234 227 210 216 234 243 235 200 217 217 217 234 257 282 287 291 295 301 307 313 315 316 317 316 317 321 324 323 323 326 329 329 329 331 331 329 327 325 326
266 265 266 268 267 269 279 283 284 284 284 285 277 272 270 269 276 267 254 258 260 260 261 263 266 268 267 261 259 259 258 264 269 278 292 298 296 284 269 264 251 239 230 218 228 234 231 207 196 215 230 219 210 213 218 219 229 250 267 276 280 289 297 303 308 311 311 311 314 317 319 322 325 326 326 328 330 332 332 331 328 326 325 326 327
268 268 268 269 268 268 274 279 279 277 279 278 269 267 264 264 271 261 248 252 256 258 260 261 265 266 265 265 265 261 257 260 267 277 288 292 285 270 268 272 243 210 205 206 221 231 223 208 199 214 223 215 215 216 217 226 242 259 270 280 287 292 297 303 307 309 309 310 314 316 319 322 328 331 331 331 331 332 331 327 326 327 328 329 328
267 267 267 267 269 270 273 274 273 273 275 272 261 260 258 258 265 257 245 250 255 256 257 259 265 268 267 270 269 263 259 260 267 274 283 290 277 259 267 271 237 202 200 202 210 216 210 206 201 203 207 213 222 223 224 233 243 261 273 282 288 292 296 299 302 305 309 311 313 316 322 327 331 333 334 333 330 329 329 328 330 330 329 328 327
265 262 261 264 268 269 272 270 266 268 271 266 257 256 255 256 261 254 244 252 256 255 257 262 269 270 266 269 267 262 261 264 272 279 291 293 267 253 268 261 228 206 206 204 202 201 195 195 200 201 205 218 226 226 231 241 256 268 274 278 284 290 294 297 300 304 307 310 311 316 324 330 333 334 333 333 328 328 332 332 331 330 328 327 327
261 260 258 261 266 267 269 265 260 263 266 262 255 255 254 256 259 250 244 252 255 256 261 267 271 267 263 266 264 262 263 267 277 283 292 283 251 252 259 239 220 215 211 208 205 204 200 200 206 211 220 233 235 233 237 250 265 271 276 281 286 291 294 298 302 304 307 309 310 316 324 329 332 331 330 330 330 331 333 331 330 329 329 329 328
260 260 258 259 264 266 267 262 258 260 262 259 256 255 253 257 259 246 245 254 256 260 265 269 269 264 263 261 260 262 262 267 276 283 289 273 246 247 247 225 221 218 211 210 210 214 215 212 221 229 240 248 248 250 259 269 275 279 283 288 292 296 299 300 301 302 306 310 313 317 322 325 326 326 327 330 332 332 332 331 331 331 332 331 331
260 259 257 258 260 262 266 262 258 258 258 259 258 257 257 260 257 247 249 256 258 261 263 267 268 264 262 258 257 260 258 264 272 282 289 272 246 240 234 222 220 218 212 210 213 217 213 213 234 244 250 258 265 272 279 282 284 285 289 294 298 301 302 300 300 304 308 312 313 315 318 319 321 325 329 332 332 333 334 334 335 335 335 335 333
258 258 254 254 257 260 265 262 257 256 256 260 262 262 262 261 257 251 252 257 259 260 263 269 270 264 261 258 257 258 258 264 269 277 282 268 247 232 222 215 212 214 213 211 215 218 207 213 241 254 261 268 276 281 283 286 287 289 294 299 300 301 302 302 304 307 309 309 310 311 314 317 322 328 332 335 334 334 335 336 337 338 336 335 333
254 256 252 252 256 259 262 260 256 256 255 257 261 263 262 259 256 252 252 257 259 260 266 272 272 267 263 261 259 259 263 267 265 270 275 264 244 224 218 213 210 215 216 211 211 214 209 223 245 258 266 273 277 280 284 286 288 294 300 300 301 302 302 305 307 305 304 304 307 311 315 320 326 331 334 335 335 334 336 337 337 336 334 333 332
252 253 251 252 254 255 257 258 257 256 253 254 258 261 261 258 255 253 253 258 260 262 269 274 274 271 265 262 260 260 263 264 264 271 277 269 247 227 223 217 214 220 223 216 210 214 232 247 257 262 266 272 274 277 281 283 289 297 300 300 302 302 301 304 304 302 302 303 307 313 317 323 327 331 333 333 334 335 337 337 335 333 332 332 332
251 252 252 254 254 254 255 256 257 255 252 251 254 254 256 256 254 254 256 261 263 264 268 272 274 270 262 259 262 264 261 259 265 270 270 264 247 227 220 215 216 222 223 219 216 230 254 263 265 263 264 269 271 275 278 282 292 299 300 301 301 300 299 299 298 300 304 305 309 314 317 321 325 329 330 331 333 336 337 334 332 331 330 330 330
254 253 251 253 256 257 254 254 254 252 249 246 246 249 252 255 257 260 265 270 271 268 266 269 273 268 260 260 265 268 264 264 269 269 262 253 237 222 215 213 217 220 219 217 227 244 258 263 263 261 264 267 270 275 280 286 295 299 299 300 300 300 299 295 296 301 305 307 311 315 317 320 324 326 326 328 333 335 334 331 330 328 327 328 330
255 255 250 252 256 256 252 252 251 247 245 243 245 250 253 258 265 270 274 276 273 267 263 264 267 263 256 257 265 268 269 275 280 274 265 252 235 221 214 214 218 221 221 223 237 252 259 261 259 259 262 266 270 275 283 292 297 299 299 301 301 301 299 297 298 302 305 308 311 313 316 317 320 321 323 328 333 333 331 328 326 325 327 330 330
254 256 254 253 254 253 251 251 247 243 242 241 244 250 253 260 268 273 276 274 267 262 258 259 261 257 251 254 261 265 270 279 283 275 266 256 242 228 218 219 224 227 231 238 247 256 262 262 260 260 263 268 274 279 287 295 298 299 300 301 301 300 298 298 299 302 305 307 309 311 311 313 314 316 321 328 330 329 328 325 324 328 331 330 325
252 254 254 253 252 250 250 249 243 240 239 239 243 248 252 260 267 271 272 269 264 260 258 257 257 253 250 252 256 262 271 278 276 267 262 256 246 234 227 228 233 237 243 249 254 259 262 261 260 262 265 271 279 285 291 296 298 299 301 300 298 298 298 298 299 301 302 305 308 308 308 309 310 312 320 327 326 326 326 325 327 330 329 322 318
250 251 252 253 251 246 246 246 241 238 238 239 243 246 252 261 266 269 270 268 263 258 255 254 254 252 249 249 254 262 270 269 262 256 254 252 248 243 238 237 242 245 247 250 254 259 260 260 263 265 269 275 282 289 294 296 298 299 300 297 294 296 298 299 301 302 304 306 307 306 306 306 307 312 318 322 322 325 327 326 327 324 316 313 316
249 251 252 251 247 241 242 242 238 237 238 239 242 246 254 262 266 268 269 267 263 258 254 253 254 252 248 248 257 266 265 257 253 251 249 250 251 250 246 244 243 244 247 251 255 260 262 262 266 270 275 280 286 291 294 295 297 298 298 295 294 296 297 299 301 303 306 308 307 305 303 300 303 309 313 316 321 327 326 322 319 314 310 314 323
249 251 251 249 242 237 238 237 235 237 237 238 241 247 255 262 265 268 267 265 262 259 255 254 254 250 246 251 261 264 256 249 249 250 248 248 248 248 246 243 242 244 249 254 258 260 263 265 269 274 279 285 289 292 293 294 297 298 296 295 294 294 295 297 301 305 307 308 308 307 303 300 302 306 307 312 321 325 320 316 315 313 315 322 330
Height
3197 3197 3198 3199 3200 3200 3201 3201 3201 3201 3201 3201 3201 3200 3200 3199 3198 3198 3198 3197 3197 3197 3197 3196 3196 3196 3195 3195 3194 3194 3193 3193 3193 3193 3192 3192 3192 3192 3192 3192 3192 3193 3193 3193 3194 3194 3195 3195 3195 3195 3195 3195 3196 3196 3196 3196 3197 3197 3197 3197 3197 3197 3197 3197 3197 3196 3196 3196 3195 3195 3194 3193 3192 3191 3191 3190 3189 3188 3187 3186 3185 3184 3183 3182 3181
3197 3197 3198 3199 3200 3200 3201 3201 3201 3201 3201 3201 3201 3201 3200 3200 3199 3199 3198 3198 3198 3197 3197 3197 3197 3196 3196 3196 3195 3195 3194 3194 3194 3194 3193 3193 3193 3193 3193 3193 3193 3193 3193 3194 3194 3195 3195 3195 3196 3196 3196 3196 3197 3197 3197 3197 3198 3198 3198 3198 3198 3198 3198 3198 3197 3197 3197 3196 3196 3195 3195 3194 3193 3192 3191 3190 3189 3188 3187 3186 3185 3184 3183 3182 3181
3197 3198 3198 3199 3200 3200 3201 3201 3201 3201 3201 3201 3201 3201 3201 3200 3200 3199 3199 3198 3198 3198 3198 3198 3198 3197 3197 3197 3196 3196 3195 3195 3194 3194 3194 3194 3194 3194 3194 3193 3193 3193 3193 3194 3194 3195 3195 3196 3196 3197 3197 3197 3197 3198 3198 3198 3199 3199 3199 3199 3199 3199 3199 3199 3198 3198 3197 3196 3196 3196 3195 3194 3193 3192 3192 3191 3190 3189 3188 3186 3185 3184 3183 3182 3181
3197 3198 3198 3199 3200 3200 3201 3201 3201 3201 3202 3201 3201 3201 3201 3201 3200 3199 3199 3199 3199 3199 3198 3198 3198 3198 3198 3197 3197 3197 3196 3196 3195 3195 3195 3195 3195 3195 3195 3194 3194 3194 3194 3194 3195 3195 3196 3196 3197 3197 3198 3198 3198 3199 3199 3199 3200 3200 3200 3200 3200 3200 3199 3199 3199 3198 3198 3197 3197 3196 3196 3195 3193 3193 3192 3191 3190 3189 3188 3186 3185 3184 3183 3182 3181
3196 3197 3198 3199 3199 3200 3201 3201 3201 3201 3201 3201 3201 3201 3201 3201 3200 3200 3200 3199 3199 3199 3199 3199 3199 3199 3198 3198 3198 3197 3197 3196 3196 3196 3196 3196 3196 3196 3196 3196 3195 3195 3195 3195 3195 3196 3196 3197 3197 3198 3198 3199 3199 3199 3200 3200 3200 3200 3201 3201 3200 3200 3200 3199 3199 3199 3198 3198 3198 3197 3196 3195 3193 3193 3192 3191 3190 3189 3187 3186 3185 3184 3183 3182 3181
3195 3197 3198 3199 3199 3200 3200 3201 3201 3201 3201 3201 3201 3201 3201 3201 3201 3200 3200 3200 3200 3199 3199 3199 3199 3199 3199 3199 3199 3198 3198 3197 3197 3197 3197 3197 3196 3197 3197 3197 3196 3196 3196 3196 3196 3197 3197 3198 3198 3198 3199 3199 3200 3200 3200 3201 3201 3201 3201 3201 3201 3200 3200 3199 3199 3199 3198 3198 3199 3197 3196 3195 3193 3193 3192 3191 3190 3188 3187 3186 3185 3184 3183 3182 3181
3194 3196 3197 3198 3199 3199 3200 3200 3201 3201 3201 3201 3201 3201 3201 3201 3201 3201 3200 3200 3200 3200 3200 3200 3199 3199 3199 3199 3199 3199 3198 3198 3197 3197 3197 3197 3197 3197 3197 3197 3197 3197 3197 3197 3197 3198 3198 3198 3199 3199 3200 3200 3200 3201 3201 3201 3201 3201 3201 3201 3201 3200 3200 3199 3199 3198 3198 3198 3198 3196 3195 3194 3193 3193 3192 3191 3189 3188 3187 3186 3185 3184 3183 3182 3181
3194 3195 3196 3197 3198 3199 3200 3200 3200 3200 3201 3201 3201 3201 3201 3201 3201 3201 3200 3200 3200 3200 3200 3200 3200 3200 3199 3199 3199 3199 3199 3198 3198 3198 3198 3198 3198 3197 3198 3198 3198 3198 3198 3198 3198 3199 3199 3199 3200 3200 3200 3201 3201 3202 3202 3202 3202 3202 3202 3201 3201 3200 3200 3199 3199 3198 3197 3197 3197 3195 3195 3194 3193 3193 3192 3191 3189 3188 3187 3186 3185 3184 3183 3182 3181
3194 3195 3196 3197 3198 3198 3199 3199 3199 3200 3200 3200 3200 3200 3201 3201 3201 3201 3200 3200 3200 3200 3200 3200 3200 3200 3199 3200 3200 3200 3199 3199 3199 3199 3198 3198 3198 3198 3198 3199 3199 3199 3199 3199 3200 3200 3200 3200 3201 3201 3201 3202 3202 3202 3203 3203 3203 3202 3202 3202 3201 3201 3200 3199 3199 3198 3196 3196 3196 3194 3194 3194 3194 3193 3192 3190 3189 3188 3187 3186 3185 3184 3183 3182 3181
3193 3194 3195 3196 3197 3198 3198 3198 3199 3199 3199 3199 3200 3200 3200 3200 3200 3200 3200 3200 3200 3200 3200 3200 3200 3200 3200 3200 3200 3200 3200 3199 3199 3199 3199 3199 3199 3199 3199 3199 3200 3200 3200 3200 3201 3201 3201 3201 3201 3202 3202 3203 3203 3203 3203 3203 3203 3203 3203 3202 3202 3201 3200 3199 3198 3198 3196 3196 3195 3194 3195 3195 3194 3193 3192 3190 3189 3188 3187 3186 3185 3184 3183 3182 3181
3192 3193 3194 3195 3196 3197 3197 3198 3198 3198 3198 3199 3199 3199 3200 3200 3200 3200 3200 3200 3200 3200 3200 3200 3200 3200 3200 3200 3200 3200 3200 3199 3199 3199 3199 3199 3199 3199 3199 3200 3200 3200 3200 3201 3201 3202 3202 3202 3202 3202 3203 3203 3203 3203 3204 3204 3204 3203 3203 3203 3202 3201 3200 3199 3199 3198 3196 3196 3195 3195 3195 3195 3194 3193 3191 3190 3189 3188 3187 3186 3185 3184 3183 3182 3181
3191 3192 3193 3194 3195 3196 3197 3197 3197 3197 3197 3198 3198 3199 3199 3200 3200 3200 3200 3200 3200 3200 3200 3200 3200 3200 3200 3200 3200 3200 3200 3200 3199 3200 3200 3200 3200 3200 3200 3200 3201 3201 3201 3201 3202 3202 3203 3203 3203 3203 3203 3203 3204 3204 3204 3204 3204 3204 3204 3203 3202 3202 3201 3199 3199 3197 3196 3196 3196 3195 3195 3194 3194 3193 3191 3190 3189 3188 3187 3186 3185 3184 3183 3182 3181
3191 3191 3192 3193 3195 3195 3196 3196 3197 3197 3197 3197 3198 3198 3199 3199 3200 3200 3200 3200 3200 3200 3200 3200 3200 3200 3200 3200 3200 3201 3200 3200 3200 3200 3200 3200 3200 3200 3200 3200 3201 3201 3201 3202 3202 3203 3203 3204 3204 3204 3204 3204 3204 3204 3204 3204 3204 3204 3203 3203 3202 3201 3201 3200 3198 3197 3197 3197 3195 3195 3195 3194 3194 3193 3191 3190 3189 3188 3187 3186 3185 3184 3183 3182 3181
3190 3191 3192 3193 3194 3195 3195 3195 3196 3196 3196 3197 3197 3198 3198 3199 3199 3199 3199 3199 3199 3199 3200 3200 3200 3200 3200 3200 3200 3200 3200 3200 3200 3200 3200 3200 3201 3201 3201 3201 3201 3201 3202 3202 3202 3203 3203 3204 3204 3204 3204 3204 3204 3204 3204 3204 3204 3204 3203 3203 3202 3201 3200 3200 3199 3198 3198 3197 3196 3195 3195 3195 3194 3193 3191 3190 3189 3188 3187 3186 3185 3184 3183 3182 3181
3190 3191 3191 3192 3193 3194 3194 3195 3195 3195 3196 3196 3196 3197 3197 3198 3199 3199 3199 3199 3199 3199 3199 3200 3200 3200 3200 3200 3200 3200 3200 3200 3200 3200 3200 3200 3201 3201 3201 3201 3201 3201 3202 3202 3203 3203 3203 3204 3204 3204 3204 3205 3204 3205 3205 3204 3204 3204 3203 3203 3202 3201 3200 3200 3199 3198 3198 3198 3196 3196 3195 3195 3194 3192 3191 3190 3189 3188 3187 3186 3185 3184 3184 3182 3181
3190 3190 3191 3191 3192 3193 3194 3194 3194 3195 3195 3195 3195 3196 3197 3197 3198 3198 3198 3199 3199 3199 3199 3199 3200 3200 3200 3200 3200 3200 3200 3200 3200 3200 3200 3201 3201 3201 3201 3201 3201 3201 3202 3202 3202 3203 3203 3203 3204 3204 3204 3204 3204 3205 3204 3204 3204 3204 3203 3203 3202 3201 3201 3200 3199 3198 3198 3198 3197 3196 3195 3194 3193 3192 3191 3190 3189 3188 3187 3186 3185 3184 3184 3183 3182
3190 3190 3191 3191 3191 3192 3193 3193 3194 3194 3194 3194 3195 3195 3196 3197 3197 3198 3198 3198 3198 3199 3199 3199 3199 3200 3200 3200 3200 3200 3200 3200 3200 3200 3200 3201 3201 3201 3201 3201 3201 3201 3202 3202 3202 3203 3203 3203 3204 3204 3204 3204 3204 3204 3204 3204 3204 3204 3203 3202 3202 3201 3201 3200 3199 3198 3198 3197 3197 3196 3195 3194 3193 3192 3191 3190 3189 3188 3187 3187 3186 3185 3184 3183 3182
3190 3190 3191 3191 3191 3192 3192 3193 3193 3193 3193 3194 3194 3195 3195 3196 3197 3197 3197 3198 3198 3198 3198 3199 3199 3199 3199 3200 3200 3200 3200 3200 3200 3200 3200 3200 3200 3201 3201 3201 3201 3201 3202 3202 3202 3203 3203 3203 3203 3204 3204 3204 3204 3204 3203 3203 3203 3203 3203 3202 3202 3201 3201 3199 3199 3199 3198 3197 3196 3195 3194 3193 3193 3192 3191 3190 3190 3189 3188 3187 3186 3185 3184 3183 3182
3190 3190 3191 3191 3191 3191 3192 3192 3193 3193 3193 3193 3193 3194 3195 3195 3196 3196 3197 3197 3197 3198 3198 3198 3199 3199 3199 3199 3199 3199 3199 3200 3200 3200 3200 3200 3200 3200 3200 3200 3201 3201 3201 3202 3202 3202 3203 3203 3203 3203 3203 3204 3203 3203 3203 3203 3203 3203 3202 3202 3202 3201 3200 3199 3199 3199 3198 3197 3196 3195 3194 3193 3193 3192 3191 3191 3190 3189 3188 3187 3186 3185 3184 3183 3182
3190 3190 3190 3190 3190 3190 3191 3191 3192 3192 3192 3192 3193 3193 3194 3195 3195 3196 3196 3196 3197 3197 3197 3198 3198 3198 3198 3199 3199 3199 3199 3199 3199 3199 3199 3199 3199 3200 3200 3200 3200 3200 3201 3201 3202 3202 3202 3202 3203 3203 3203 3203 3203 3202 3202 3202 3203 3203 3202 3202 3202 3200 3199 3199 3199 3199 3198 3197 3196 3194 3193 3193 3193 3192 3191 3191 3190 3189 3188 3187 3186 3185 3184 3183 3182
3190 3190 3190 3190 3190 3190 3190 3191 3191 3191 3192 3192 3192 3193 3193 3194 3194 3195 3195 3196 3196 3196 3197 3197 3198 3198 3198 3198 3198 3198 3198 3198 3198 3198 3199 3199 3199 3199 3199 3200 3200 3200 3200 3200 3201 3201 3201 3201 3202 3202 3202 3202 3202 3202 3202 3202 3202 3202 3202 3202 3201 3200 3199 3199 3199 3198 3197 3196 3195 3194 3193 3193 3193 3192 3192 3191 3190 3189 3188 3187 3186 3185 3184 3183 3182
3189 3189 3189 3189 3189 3189 3190 3190 3190 3191 3191 3191 3191 3192 3192 3193 3194 3194 3195 3195 3195 3196 3196 3197 3197 3197 3197 3198 3198 3198 3198 3198 3198 3198 3198 3198 3198 3198 3199 3199 3199 3199 3199 3199 3200 3200 3200 3201 3201 3201 3201 3201 3201 3201 3201 3202 3202 3202 3202 3201 3200 3199 3199 3199 3198 3198 3197 3196 3194 3194 3193 3193 3192 3192 3191 3191 3190 3189 3188 3187 3186 3185 3184 3183 3182
3189 3189 3189 3189 3189 3189 3189 3190 3190 3190 3190 3190 3191 3191 3192 3192 3193 3193 3194 3194 3195 3195 3195 3196 3196 3197 3197 3197 3197 3197 3197 3197 3197 3198 3198 3198 3198 3198 3198 3198 3198 3198 3198 3199 3199 3199 3200 3200 3200 3201 3201 3201 3201 3201 3201 3201 3202 3202 3201 3200 3200 3199 3198 3198 3198 3197 3196 3195 3194 3193 3193 3193 3192 3192 3191 3191 3190 3189 3188 3187 3185 3184 3183 3182 3181
3188 3188 3188 3188 3188 3188 3189 3189 3189 3189 3190 3190 3190 3190 3191 3191 3192 3193 3193 3194 3194 3194 3195 3195 3196 3196 3196 3197 3197 3197 3197 3197 3197 3197 3197 3197 3197 3197 3197 3197 3197 3197 3197 3198 3198 3199 3199 3200 3200 3200 3200 3200 3201 3201 3200 3200 3201 3201 3201 3200 3199 3198 3198 3198 3197 3196 3195 3194 3194 3193 3193 3193 3192 3192 3191 3190 3190 3188 3187 3186 3185 3184 3183 3182 3181
3187 3187 3187 3187 3187 3188 3188 3188 3189 3189 3189 3189 3189 3189 3190 3190 3191 3192 3192 3193 3193 3194 3194 3194 3195 3195 3196 3196 3196 3196 3196 3196 3196 3197 3197 3197 3197 3197 3196 3196 3197 3197 3197 3197 3197 3198 3198 3199 3199 3200 3200 3200 3200 3200 3199 3199 3200 3201 3200 3199 3198 3198 3198 3197 3196 3195 3194 3194 3194 3193 3193 3193 3192 3192 3191 3190 3189 3188 3187 3186 3184 3183 3182 3181 3180
3186 3186 3187 3186 3187 3187 3187 3188 3188 3189 3189 3189 3189 3189 3189 3190 3190 3191 3192 3192 3192 3193 3193 3193 3194 3194 3195 3195 3195 3196 3196 3196 3196 3196 3197 3196 3196 3196 3196 3196 3196 3197 3197 3197 3197 3198 3198 3198 3198 3199 3199 3199 3199 3199 3199 3199 3200 3200 3198 3198 3197 3197 3197 3196 3195 3194 3194 3194 3194 3194 3193 3193 3192 3191 3190 3189 3188 3187 3186 3185 3184 3183 3181 3180 3179
3185 3185 3186 3186 3186 3186 3186 3186 3187 3188 3188 3188 3188 3188 3189 3189 3189 3190 3191 3191 3191 3192 3192 3192 3193 3193 3194 3194 3194 3194 3195 3195 3195 3196 3196 3195 3195 3195 3195 3196 3196 3196 3196 3197 3197 3198 3197 3197 3197 3197 3197 3198 3198 3198 3198 3199 3200 3199 3197 3197 3196 3197 3197 3196 3195 3195 3194 3194 3194 3194 3193 3193 3192 3191 3189 3188 3187 3186 3185 3184 3182 3181 3180 3179 3177
3184 3184 3185 3185 3185 3185 3185 3185 3186 3187 3187 3187 3187 3188 3188 3188 3188 3189 3190 3190 3190 3190 3191 3191 3192 3192 3193 3193 3193 3193 3194 3194 3194 3195 3195 3194 3194 3194 3195 3195 3195 3195 3196 3197 3198 3198 3197 3197 3196 3196 3196 3196 3196 3197 3196 3197 3199 3199 3197 3196 3196 3196 3196 3195 3195 3195 3194 3194 3194 3194 3193 3192 3191 3190 3189 3187 3186 3185 3184 3182 3181 3179 3178 3177 3175
3183 3183 3184 3184 3184 3184 3184 3184 3185 3186 3186 3187 3187 3187 3188 3188 3188 3188 3189 3190 3189 3190 3190 3190 3191 3191 3192 3192 3192 3192 3193 3193 3193 3193 3194 3193 3193 3194 3194 3194 3194 3194 3194 3196 3197 3197 3197 3197 3196 3195 3195 3195 3195 3196 3195 3195 3197 3198 3197 3196 3195 3195 3196 3195 3195 3195 3194 3194 3194 3193 3192 3191 3190 3189 3188 3186 3185 3184 3183 3181 3180 3178 3176 3175 3174
3181 3182 3182 3183 3183 3183 3183 3183 3184 3185 3185 3185 3186 3186 3187 3187 3187 3187 3188 3189 3189 3188 3188 3188 3189 3190 3191 3191 3191 3191 3192 3192 3192 3192 3193 3193 3193 3193 3193 3192 3192 3193 3194 3194 3195 3196 3196 3196 3196 3195 3194 3193 3193 3194 3195 3194 3194 3195 3196 3196 3195 3195 3196 3195 3195 3194 3194 3194 3193 3193 3191 3190 3189 3188 3187 3185 3184 3183 3181 3180 3178 3177 3175 3174 3173
3179 3180 3181 3181 3182 3182 3182 3182 3183 3183 3184 3184 3185 3185 3186 3186 3186 3186 3187 3187 3187 3187 3187 3187 3188 3188 3189 3190 3190 3191 3191 3191 3191 3191 3192 3192 3192 3192 3192 3192 3192 3192 3193 3193 3194 3195 3195 3195 3196 3195 3194 3194 3191 3191 3193 3194 3193 3193 3194 3195 3195 3195 3195 3195 3194 3194 3193 3193 3193 3192 3191 3189 3188 3187 3185 3184 3183 3182 3180 3179 3177 3175 3174 3173 3172
3177 3179 3180 3180 3181 3181 3181 3181 3182 3182 3183 3183 3184 3184 3185 3185 3185 3185 3186 3186 3186 3185 3186 3186 3186 3187 3188 3189 3189 3189 3190 3190 3190 3190 3191 3191 3191 3191 3191 3191 3191 3191 3192 3192 3193 3194 3194 3194 3195 3195 3195 3195 3192 3190 3192 3193 3193 3193 3194 3194 3193 3192 3193 3193 3193 3193 3192 3192 3192 3191 3190 3189 3187 3185 3184 3183 3181 3180 3179 3177 3176 3174 3173 3171 3170
3176 3177 3178 3178 3179 3180 3180 3180 3181 3181 3182 3182 3183 3183 3184 3184 3184 3184 3185 3184 3185 3185 3185 3185 3185 3186 3187 3188 3188 3188 3189 3189 3189 3189 3190 3190 3189 3189 3190 3190 3190 3190 3190 3191 3191 3192 3192 3192 3194 3195 3195 3195 3194 3192 3192 3192 3193 3194 3194 3194 3193 3192 3191 3192 3192 3192 3191 3190 3190 3189 3189 3188 3186 3184 3182 3181 3180 3179 3177 3176 3174 3173 3171 3170 3169
3174 3175 3176 3177 3177 3179 3179 3179 3180 3180 3181 3181 3182 3182 3183 3183 3183 3183 3184 3183 3183 3183 3183 3184 3184 3185 3185 3186 3187 3187 3188 3188 3188 3188 3188 3188 3188 3188 3188 3189 3189 3189 3189 3190 3190 3190 3191 3191 3192 3193 3194 3194 3193 3191 3191 3192 3193 3194 3194 3194 3194 3192 3191 3190 3190 3191 3190 3189 3188 3187 3187 3186 3185 3183 3181 3179 3179 3177 3176 3174 3173 3171 3170 3168 3167
3172 3174 3174 3175 3175 3177 3178 3178 3179 3179 3180 3180 3181 3182 3182 3182 3182 3182 3182 3182 3182 3182 3182 3183 3183 3184 3184 3185 3186 3186 3187 3187 3187 3188 3188 3188 3188 3187 3187 3188 3188 3189 3189 3189 3189 3189 3190 3190 3191 3192 3192 3192 3191 3190 3191 3192 3193 3194 3194 3194 3193 3192 3191 3189 3188 3188 3188 3187 3186 3185 3185 3184 3183 3182 3180 3178 3177 3176 3175 3173 3172 3170 3168 3166 3165
3171 3172 3173 3173 3174 3175 3176 3177 3177 3177 3178 3179 3180 3181 3181 3180 3180 3181 3181 3181 3181 3181 3181 3181 3182 3183 3183 3183 3184 3185 3186 3186 3187 3187 3187 3187 3187 3186 3186 3187 3187 3187 3188 3188 3189 3189 3189 3190 3190 3191 3190 3190 3189 3190 3191 3192 3193 3194 3194 3193 3192 3191 3190 3189 3188 3187 3185 3184 3183 3183 3182 3181 3181 3180 3179 3177 3176 3174 3173 3172 3170 3168 3166 3165 3163
3168 3170 3172 3172 3172 3173 3174 3175 3175 3176 3176 3178 3179 3179 3179 3179 3179 3180 3180 3180 3180 3180 3180 3180 3181 3182 3182 3182 3183 3183 3184 3185 3185 3185 3185 3185 3185 3185 3185 3185 3185 3185 3186 3187 3187 3187 3188 3189 3189 3189 3189 3188 3189 3190 3191 3192 3193 3193 3193 3192 3191 3190 3189 3188 3187 3186 3185 3184 3182 3180 3179 3179 3178 3178 3177 3176 3175 3173 3171 3170 3168 3166 3164 3163 3161
3166 3168 3170 3170 3171 3171 3172 3173 3173 3174 3175 3176 3177 3177 3178 3177 3178 3179 3179 3179 3179 3179 3179 3179 3181 3181 3181 3182 3181 3182 3182 3183 3183 3183 3183 3184 3184 3184 3183 3183 3184 3184 3184 3185 3185 3186 3187 3188 3188 3188 3188 3188 3188 3190 3191 3192 3192 3192 3191 3190 3190 3189 3188 3187 3186 3185 3184 3183 3181 3179 3178 3178 3177 3176 3175 3174 3173 3171 3170 3168 3166 3164 3162 3160 3158
3164 3166 3168 3169 3169 3169 3170 3171 3171 3172 3173 3174 3175 3176 3176 3176 3176 3177 3177 3177 3178 3178 3178 3179 3179 3180 3180 3180 3180 3180 3181 3182 3182 3182 3182 3182 3182 3182 3182 3182 3183 3183 3183 3184 3184 3185 3186 3186 3186 3186 3187 3187 3187 3189 3190 3190 3190 3190 3190 3189 3188 3188 3187 3186 3185 3184 3183 3182 3181 3179 3178 3177 3176 3175 3174 3172 3171 3169 3168 3166 3165 3163 3161 3159 3156
3163 3164 3166 3166 3166 3167 3167 3169 3169 3170 3171 3172 3173 3174 3174 3174 3175 3176 3176 3176 3177 3176 3177 3177 3178 3178 3178 3179 3179 3179 3180 3181 3181 3181 3181 3181 3181 3181 3181 3182 3182 3182 3183 3183 3183 3184 3185 3185 3185 3186 3186 3186 3186 3188 3188 3189 3189 3189 3188 3187 3187 3186 3185 3184 3183 3182 3181 3180 3180 3178 3177 3176 3175 3173 3172 3170 3168 3167 3165 3164 3162 3161 3159 3157 3155
3160 3162 3163 3163 3163 3164 3165 3166 3167 3168 3169 3170 3171 3172 3172 3173 3174 3175 3175 3175 3175 3175 3175 3176 3176 3176 3176 3177 3178 3178 3179 3179 3180 3179 3180 3180 3180 3181 3181 3181 3182 3182 3182 3182 3183 3183 3184 3184 3185 3185 3185 3184 3185 3186 3187 3187 3187 3187 3187 3186 3185 3184 3183 3183 3182 3181 3180 3179 3178 3177 3176 3174 3173 3171 3170 3168 3167 3165 3163 3161 3159 3158 3157 3156 3154
3157 3159 3161 3161 3161 3162 3162 3163 3164 3166 3167 3168 3169 3170 3170 3171 3172 3173 3173 3173 3174 3173 3174 3174 3174 3174 3174 3176 3176 3177 3177 3178 3178 3178 3179 3179 3179 3180 3180 3180 3181 3181 3181 3181 3182 3182 3183 3184 3184 3184 3184 3184 3184 3185 3185 3185 3186 3186 3185 3184 3183 3182 3181 3181 3180 3179 3178 3177 3176 3175 3174 3172 3171 3169 3168 3166 3165 3163 3161 3159 3157 3156 3155 3153 3152
3154 3156 3158 3158 3159 3159 3159 3160 3162 3164 3165 3166 3167 3168 3169 3170 3171 3171 3171 3172 3172 3172 3172 3173 3173 3172 3172 3174 3175 3176 3176 3176 3177 3177 3177 3177 3178 3178 3179 3179 3179 3179 3179 3180 3181 3181 3182 3183 3183 3183 3183 3183 3184 3184 3184 3184 3184 3184 3183 3182 3181 3180 3180 3179 3178 3178 3177 3176 3174 3173 3172 3170 3169 3167 3166 3165 3163 3161 3159 3157 3156 3155 3153 3152 3150
3151 3153 3154 3155 3156 3157 3157 3158 3159 3161 3163 3164 3165 3166 3167 3168 3168 3169 3169 3169 3170 3170 3171 3171 3171 3171 3171 3171 3173 3174 3175 3175 3175 3175 3175 3176 3176 3177 3177 3178 3178 3178 3179 3179 3179 3180 3181 3182 3182 3182 3182 3182 3182 3183 3183 3183 3182 3182 3181 3180 3179 3179 3178 3178 3177 3176 3175 3173 3172 3171 3169 3168 3167 3166 3164 3163 3162 3160 3158 3156 3155 3153 3152 3150 3149
3148 3150 3151 3152 3153 3154 3155 3156 3157 3159 3161 3161 3162 3163 3165 3165 3166 3166 3167 3167 3168 3169 3169 3169 3170 3169 3169 3169 3170 3172 3172 3173 3174 3175 3175 3175 3176 3176 3176 3177 3177 3177 3178 3178 3178 3179 3180 3180 3181 3181 3181 3181 3181 3181 3181 3181 3181 3180 3179 3178 3178 3177 3177 3176 3175 3174 3173 3172 3170 3169 3167 3166 3165 3164 3162 3161 3160 3158 3157 3155 3154 3152 3150 3149 3147
3145 3147 3149 3149 3150 3152 3152 3153 3155 3157 3158 3159 3160 3161 3162 3163 3163 3164 3164 3165 3166 3167 3167 3168 3168 3168 3168 3168 3168 3169 3169 3170 3172 3173 3173 3174 3174 3175 3175 3176 3176 3176 3177 3177 3178 3178 3178 3179 3179 3179 3179 3179 3180 3180 3179 3179 3179 3178 3177 3176 3175 3175 3175 3174 3173 3172 3171 3170 3168 3167 3166 3164 3163 3162 3161 3159 3157 3156 3155 3153 3152 3151 3149 3148 3146
3142 3144 3145 3146 3147 3148 3149 3150 3152 3154 3155 3156 3158 3159 3160 3160 3161 3161 3162 3164 3164 3164 3165 3165 3166 3166 3166 3166 3167 3167 3166 3167 3168 3170 3170 3171 3171 3173 3173 3174 3174 3175 3175 3176 3176 3176 3177 3177 3177 3178 3178 3178 3178 3178 3178 3177 3176 3176 3175 3174 3173 3173 3172 3172 3171 3170 3169 3168 3167 3165 3164 3163 3161 3160 3159 3157 3155 3154 3153 3151 3150 3149 3147 3146 3144
3139 3140 3141 3143 3144 3145 3146 3148 3149 3151 3152 3154 3155 3156 3157 3157 3158 3159 3160 3161 3162 3162 3162 3163 3164 3164 3164 3165 3165 3165 3165 3165 3166 3167 3168 3168 3169 3170 3171 3171 3172 3172 3173 3174 3174 3174 3175 3175 3175 3176 3176 3176 3176 3176 3176 3175 3174 3173 3173 3172 3171 3170 3170 3170 3169 3168 3167 3167 3166 3164 3162 3161 3160 3158 3157 3156 3153 3152 3151 3149 3147 3146 3145 3144 3143
3136 3137 3138 3139 3140 3141 3143 3145 3146 3148 3150 3151 3153 3154 3154 3155 3156 3157 3158 3159 3159 3160 3160 3160 3161 3162 3163 3163 3164 3164 3164 3164 3165 3166 3166 3166 3167 3168 3168 3169 3170 3171 3171 3172 3172 3172 3173 3173 3174 3174 3174 3175 3174 3174 3174 3173 3172 3172 3171 3170 3169 3168 3167 3167 3166 3165 3165 3165 3164 3163 3161 3159 3158 3156 3155 3153 3152 3150 3149 3147 3146 3145 3144 3143 3141
3133 3134 3135 3136 3136 3138 3140 3142 3143 3145 3147 3149 3150 3151 3151 3152 3153 3155 3156 3156 3156 3157 3158 3158 3159 3160 3161 3161 3162 3162 3163 3163 3163 3164 3165 3165 3166 3166 3167 3167 3168 3169 3169 3170 3170 3171 3171 3171 3172 3172 3172 3173 3173 3172 3172 3171 3170 3170 3169 3168 3167 3166 3165 3164 3164 3163 3162 3161 3161 3161 3160 3158 3157 3154 3153 3151 3150 3149 3147 3146 3145 3144 3143 3141 3139
3129 3130 3131 3131 3133 3134 3136 3138 3140 3142 3144 3146 3147 3148 3148 3149 3151 3153 3153 3153 3154 3155 3156 3157 3158 3159 3159 3160 3160 3161 3161 3161 3162 3163 3163 3164 3164 3165 3165 3166 3167 3168 3168 3168 3169 3169 3169 3170 3170 3170 3171 3171 3170 3170 3170 3169 3169 3168 3167 3166 3166 3165 3164 3162 3161 3160 3159 3158 3157 3157 3157 3156 3155 3153 3151 3150 3149 3147 3146 3144 3143 3142 3140 3138 3136